Regional Weather Roundup
Issued by NWS Midland/Odessa, TX

Skip options and go directly to product.
Home | Oldest Version | Next Version | Current Version | All | Text Only | Save Text | Print | Product List | Glossary On

Skip product version selection by date and time.   
707
ASUS44 KMAF 231502
RWRMAF
MIDLAND AREA WEATHER ROUNDUP
NATIONAL WEATHER SERVICE MIDLAND TX
1000 AM CDT THU OCT 23 2014

...IN SOUTHWEST TEXAS AND SOUTHEAST NEW MEXICO...

CITY           SKY/WX    TMP DP  RH WIND       PRES   REMARKS
ALPINE         SUNNY     62  57  85 SW9       30.28R
ANDREWS        FOG       56  56 100 CALM      30.19R VSB 1/4
ARTESIA        NOT AVBL
BIG SPRING     CLOUDY    64  60  86 S7        30.19R
CARLSBAD       FOG       58  57  97 CALM      30.17R VSB 1/2
DRYDEN           N/A     63  60  90 W6        30.15R
FORT STOCKTON  SUNNY     66  59  78 SW10      30.16R
GUAD PASS      NOT AVBL
HOBBS          FOG       55  55 100 CALM      30.20R VSB 0
MARFA          CLOUDY    57  55  94 S3        30.28R
MIDLAND AIRPK  CLOUDY    62  62 100 S5        30.19R FOG
MIDLAND INTL   CLOUDY    61  58  90 SW6       30.17R FOG
ODESSA         FOG       59  58  96 SW6       30.18R VSB 1/2
PECOS          FOG       57  56  97 NW3       30.17R VSB<1/4
PRESIDIO       FAIR      65  59  81 CALM      30.19R
SEMINOLE       FOG       56  56  99 CALM      30.20R VSB 1/4
SNYDER         CLOUDY    59  58  97 S8        30.18R FOG
WINK           CLOUDY    58  58 100 CALM      30.16R
$$
...OTHER STATIONS IN TEXAS...

CITY           SKY/WX    TMP DP  RH WIND       PRES   REMARKS
ABILENE        SUNNY     69  56  62 S7        30.16R
AMARILLO       SUNNY     63  58  83 SW10      30.14R
AUSTIN         MOSUNNY   70  63  78 CALM      30.15R
BROWNSVILLE    MOSUNNY   79  69  71 NW7       30.08R
CORPUS CHRISTI PTSUNNY   71  63  75 NE16      30.11R
DALLAS FTW     PTSUNNY   65  55  70 SE7       30.16R
DEL RIO        CLOUDY    66  63  90 E7        30.13R
EL PASO        SUNNY     61  54  77 CALM      30.20R
HOUSTON INT    CLOUDY    64  54  69 N3        30.14R
LUBBOCK        FOG       54  53  97 W7        30.16R VSB 1/8
SAN ANGELO     PTSUNNY   62  57  83 CALM      30.16R
SAN ANTONIO    MOSUNNY   73  61  65 CALM      30.15R
WACO           MOSUNNY   68  58  70 SE8       30.16R
WICHITA FALLS  NOT AVBL
$$
...OTHER LOCATIONS IN NEW MEXICO...

CITY           SKY/WX    TMP DP  RH WIND       PRES   REMARKS
ALAMAGORDO     NOT AVBL
ALBUQUERQUE    SUNNY     54  42  64 W3        30.30R
CANNON AFB     MOSUNNY   58  55  91 W9        30.18R
CLOVIS         SUNNY     59  54  82 W9        30.19R
HOLLOMAN AFB   SUNNY     59  52  78 CALM      30.21R
ROSWELL        FOG       57  56  96 CALM      30.18R VSB 1/16
RUIDOSO        SUNNY     54  43  66 SW6       30.33R
SANTA FE       SUNNY     50  35  56 N13       30.32R
TRUTH OR CONSE NOT AVBL
TUCUMCARI      SUNNY     60  51  72 NW6       30.16R
$$

USA.gov is the U.S. government's official web portal to all federal, state and local government web resources and services.